When you browse on this site, cookies collect data to enhance your experience and personalize the content and advertising you see.
Visit our Privacy Policy to learn more. By continuing to use the site, you agree to this use of cookies and data.
  • In Latvia
  • List of Countries
  • For 7 days
  • Water Temperature
  • Weather Map
  • Weather Widgets
  • user-avatar
    Login

    Hourly Weather Dubendorf

    Today, 18 August, Sunday

    Time Temperature Precipitation Wind Pressure Humidity
    00:00 +17°C° 0 mm 0 mps 716 mmHg 79%
    01:00 +17°C° 0 mm 0 mps 716 mmHg 78%
    02:00 +19°C° 0 mm 1 mps 716 mmHg 79%
    03:00 +19°C° 0 mm 1 mps 715 mmHg 79%
    04:00 +18°C° 0 mm 1 mps 715 mmHg 80%
    05:00 +19°C° 0 mm 1 mps 715 mmHg 79%
    06:00 +19°C° 0 mm 1 mps 715 mmHg 79%
    07:00 +20°C° 0 mm 1 mps 715 mmHg 78%
    08:00 +23°C° 0 mm 1 mps 715 mmHg 69%
    09:00 +26°C° 0 mm 1 mps 715 mmHg 60%
    10:00 +27°C° 0 mm 0 mps 716 mmHg 51%
    11:00 +30°C° 0 mm 1 mps 716 mmHg 47%
    12:00 +31°C° 0 mm 1 mps 716 mmHg 43%
    13:00 +32°C° 0 mm 2 mps 716 mmHg 40%
    14:00 +31°C° 0 mm 2 mps 716 mmHg 43%
    15:00 +31°C° 0 mm 3 mps 715 mmHg 46%
    16:00 +30°C° 0 mm 3 mps 715 mmHg 50%
    17:00 +28°C° 0.4 mm 3 mps 715 mmHg 61%
    18:00 +25°C° 0.4 mm 2 mps 715 mmHg 72%
    19:00 +23°C° 0.4 mm 1 mps 715 mmHg 83%
    20:00 +22°C° 2.2 mm 1 mps 716 mmHg 87%
    21:00 +21°C° 2.2 mm 1 mps 716 mmHg 91%
    22:00 +20°C° 2.2 mm 1 mps 717 mmHg 95%
    23:00 +20°C° 1 mm 1 mps 717 mmHg 95%

    Tomorrow, 19 August, Monday

    Time Temperature Precipitation Wind Pressure Humidity
    00:00 +17°C° 1 mm 0 mps 717 mmHg 95%
    01:00 +17°C° 1 mm 0 mps 717 mmHg 95%
    02:00 +19°C° 1.8 mm 1 mps 717 mmHg 96%
    03:00 +19°C° 1.8 mm 1 mps 717 mmHg 96%
    04:00 +19°C° 1.8 mm 1 mps 717 mmHg 97%
    05:00 +19°C° 1.4 mm 1 mps 718 mmHg 96%
    06:00 +19°C° 1.4 mm 1 mps 718 mmHg 96%
    07:00 +19°C° 1.4 mm 1 mps 718 mmHg 95%
    08:00 +20°C° 0.1 mm 1 mps 718 mmHg 87%
    09:00 +21°C° 0.1 mm 1 mps 719 mmHg 80%
    10:00 +23°C° 0.1 mm 1 mps 719 mmHg 72%
    11:00 +23°C° 0.2 mm 1 mps 719 mmHg 69%
    12:00 +24°C° 0.2 mm 1 mps 719 mmHg 65%
    13:00 +25°C° 0.2 mm 1 mps 719 mmHg 62%
    14:00 +25°C° 0.1 mm 1 mps 719 mmHg 62%
    15:00 +25°C° 0.1 mm 1 mps 719 mmHg 61%
    16:00 +25°C° 0.1 mm 1 mps 719 mmHg 61%
    17:00 +23°C° 0.1 mm 1 mps 719 mmHg 68%
    18:00 +22°C° 0.1 mm 1 mps 719 mmHg 74%
    19:00 +21°C° 0.1 mm 1 mps 719 mmHg 81%
    20:00 +20°C° 0.2 mm 1 mps 719 mmHg 84%
    21:00 +17°C° 0.2 mm 0 mps 719 mmHg 87%
    22:00 +16°C° 0.2 mm 0 mps 719 mmHg 90%
    23:00 +16°C° 0.5 mm 0 mps 719 mmHg 92%

    Day after tomorrow, 20 August, Tuesday

    Time Temperature Precipitation Wind Pressure Humidity
    00:00 +16°C° 0.5 mm 0 mps 719 mmHg 93%
    01:00 +16°C° 0.5 mm 0 mps 719 mmHg 95%
    02:00 +15°C° 0.4 mm 0 mps 719 mmHg 96%
    03:00 +16°C° 0.4 mm 1 mps 719 mmHg 96%
    04:00 +16°C° 0.4 mm 1 mps 719 mmHg 97%
    05:00 +16°C° 0.5 mm 1 mps 719 mmHg 97%
    06:00 +15°C° 0.5 mm 0 mps 719 mmHg 97%
    07:00 +16°C° 0.5 mm 0 mps 720 mmHg 97%
    08:00 +18°C° 0.1 mm 1 mps 720 mmHg 97%
    09:00 +18°C° 0.1 mm 1 mps 720 mmHg 96%
    10:00 +18°C° 0.1 mm 1 mps 720 mmHg 96%
    11:00 +18°C° 1 mm 1 mps 720 mmHg 97%
    12:00 +17°C° 1 mm 2 mps 720 mmHg 97%
    13:00 +17°C° 1 mm 2 mps 720 mmHg 97%
    14:00 +16°C° 2.4 mm 2 mps 720 mmHg 97%
    15:00 +16°C° 2.4 mm 2 mps 721 mmHg 97%
    16:00 +15°C° 2.4 mm 2 mps 721 mmHg 98%
    17:00 +15°C° 2.7 mm 1 mps 721 mmHg 97%
    18:00 +14°C° 2.7 mm 1 mps 722 mmHg 97%
    19:00 +14°C° 2.7 mm 1 mps 722 mmHg 97%
    20:00 +14°C° 1.8 mm 1 mps 722 mmHg 97%
    21:00 +12°C° 1.8 mm 0 mps 723 mmHg 97%
    22:00 +12°C° 1.8 mm 0 mps 723 mmHg 97%
    23:00 +13°C° 2.3 mm 1 mps 723 mmHg 98%

    21 August, Wednesday

    Time Temperature Precipitation Wind Pressure Humidity
    00:00 +13°C° 2.3 mm 1 mps 723 mmHg 98%
    01:00 +12°C° 2.3 mm 1 mps 723 mmHg 98%
    02:00 +12°C° 1.2 mm 1 mps 723 mmHg 98%
    03:00 +12°C° 1.2 mm 1 mps 723 mmHg 98%
    04:00 +12°C° 1.2 mm 1 mps 723 mmHg 98%
    05:00 +12°C° 0.1 mm 1 mps 723 mmHg 97%
    06:00 +13°C° 0.1 mm 1 mps 723 mmHg 97%
    07:00 +13°C° 0.1 mm 1 mps 723 mmHg 97%
    08:00 +14°C° 0 mm 2 mps 723 mmHg 92%
    09:00 +15°C° 0 mm 2 mps 723 mmHg 86%
    10:00 +16°C° 0 mm 2 mps 723 mmHg 81%
    11:00 +18°C° 0 mm 3 mps 722 mmHg 75%
    12:00 +19°C° 0 mm 3 mps 722 mmHg 69%
    13:00 +20°C° 0 mm 3 mps 722 mmHg 64%
    14:00 +20°C° 0 mm 3 mps 722 mmHg 65%
    15:00 +20°C° 0 mm 3 mps 722 mmHg 65%
    16:00 +20°C° 0 mm 3 mps 722 mmHg 66%
    17:00 +19°C° 0 mm 3 mps 722 mmHg 72%
    18:00 +18°C° 0 mm 3 mps 722 mmHg 78%
    19:00 +17°C° 0 mm 2 mps 722 mmHg 83%
    20:00 +16°C° 0 mm 2 mps 722 mmHg 87%
    21:00 +15°C° 0 mm 2 mps 722 mmHg 91%
    22:00 +14°C° 0 mm 1 mps 722 mmHg 95%
    23:00 +13°C° 0 mm 1 mps 722 mmHg 95%

    22 August, Thursday

    Time Temperature Precipitation Wind Pressure Humidity
    00:00 +13°C° 0 mm 1 mps 722 mmHg 96%
    01:00 +12°C° 0 mm 0 mps 721 mmHg 96%
    02:00 +12°C° 0 mm 0 mps 721 mmHg 96%
    03:00 +12°C° 0 mm 0 mps 721 mmHg 96%
    04:00 +12°C° 0 mm 0 mps 721 mmHg 96%
    05:00 +12°C° 0 mm 0 mps 721 mmHg 95%
    06:00 +13°C° 0 mm 0 mps 721 mmHg 94%
    07:00 +13°C° 0 mm 0 mps 722 mmHg 92%
    08:00 +15°C° 0 mm 1 mps 722 mmHg 89%
    09:00 +16°C° 0 mm 1 mps 722 mmHg 86%
    10:00 +18°C° 0 mm 1 mps 722 mmHg 83%
    11:00 +18°C° 0 mm 1 mps 722 mmHg 81%
    12:00 +19°C° 0 mm 1 mps 722 mmHg 79%
    13:00 +20°C° 0 mm 1 mps 722 mmHg 76%
    14:00 +19°C° 0 mm 2 mps 722 mmHg 76%
    15:00 +20°C° 0 mm 2 mps 722 mmHg 75%
    16:00 +20°C° 0 mm 2 mps 722 mmHg 75%
    17:00 +19°C° 0 mm 2 mps 722 mmHg 78%
    18:00 +20°C° 0 mm 1 mps 722 mmHg 82%
    19:00 +19°C° 0 mm 1 mps 722 mmHg 85%
    20:00 +19°C° 0 mm 1 mps 722 mmHg 86%
    21:00 +19°C° 0 mm 1 mps 722 mmHg 87%
    22:00 +18°C° 0 mm 1 mps 722 mmHg 88%
    23:00 +18°C° 0 mm 1 mps 722 mmHg 90%

    23 August, Friday

    Time Temperature Precipitation Wind Pressure Humidity
    00:00 +16°C° 0 mm 1 mps 722 mmHg 92%
    01:00 +15°C° 0 mm 1 mps 722 mmHg 94%
    02:00 +14°C° 0 mm 1 mps 721 mmHg 95%
    03:00 +14°C° 0 mm 1 mps 721 mmHg 95%
    04:00 +13°C° 0 mm 1 mps 721 mmHg 96%
    05:00 +13°C° 0 mm 0 mps 721 mmHg 95%
    06:00 +13°C° 0 mm 0 mps 721 mmHg 94%
    07:00 +14°C° 0 mm 0 mps 721 mmHg 93%
    08:00 +18°C° 0 mm 1 mps 721 mmHg 87%
    09:00 +19°C° 0 mm 1 mps 721 mmHg 81%
    10:00 +21°C° 0 mm 1 mps 721 mmHg 75%
    11:00 +23°C° 0 mm 1 mps 721 mmHg 70%
    12:00 +24°C° 0 mm 1 mps 721 mmHg 65%
    13:00 +26°C° 0 mm 2 mps 721 mmHg 60%
    14:00 +26°C° 0 mm 2 mps 721 mmHg 60%
    15:00 +26°C° 0 mm 2 mps 721 mmHg 61%
    16:00 +27°C° 0 mm 2 mps 721 mmHg 62%
    17:00 +25°C° 0 mm 2 mps 720 mmHg 71%
    18:00 +23°C° 0 mm 2 mps 720 mmHg 80%
    19:00 +21°C° 0 mm 1 mps 720 mmHg 89%
    20:00 +20°C° 0 mm 1 mps 720 mmHg 91%
    21:00 +19°C° 0 mm 1 mps 720 mmHg 93%
    22:00 +18°C° 0 mm 1 mps 720 mmHg 94%
    23:00 +15°C° 0 mm 0 mps 720 mmHg 94%
    Show more